Cloud_Cover
0 0 0 0 2 0 0 0 0 6 37 96 94 100 100 100 49 31 19 32 24 8 5 5 100 100 100 100 87 100 6 100 100 100 100 100 100 100 99 100 100 100 100
0 0 0 5 3 0 0 0 0 5 100 95 100 100 100 100 5 5 13 5 5 5 30 5 95 100 81 82 100 100 28 25 100 100 100 100 100 59 99 100 100 100 96
0 0 0 5 5 1 1 0 1 97 58 100 100 100 100 68 89 84 2 5 5 5 45 24 100 100 100 90 100 100 100 83 83 100 91 100 94 9 14 89 100 92 100
0 0 0 0 5 0 0 0 5 91 99 93 32 47 84 85 18 0 0 5 5 5 87 90 100 100 100 75 100 100 5 20 78 51 84 5 43 11 15 36 100 100 100
0 0 2 4 0 0 0 0 2 46 79 100 96 100 100 9 0 0 0 5 29 53 16 76 100 100 100 100 100 81 5 99 100 100 56 78 25 33 6 38 100 100 100
0 0 7 5 0 0 0 6 5 96 91 100 100 99 58 6 0 5 5 5 5 27 100 100 100 100 100 100 100 37 5 99 100 100 100 100 22 81 5 10 100 100 100
0 1 5 5 2 0 3 60 100 92 51 100 95 11 99 98 5 24 50 24 5 9 100 100 42 100 100 100 100 100 35 11 97 100 100 100 100 24 6 5 93 100 100
2 5 5 5 0 2 2 5 45 90 37 6 14 79 32 10 98 74 90 73 54 73 100 100 100 100 100 100 100 82 5 5 37 100 100 100 70 85 31 54 100 100 100
5 5 5 5 4 0 0 4 100 98 100 92 100 59 8 98 99 11 11 25 16 55 79 100 100 100 100 100 98 87 16 37 69 79 45 91 82 100 100 54 100 100 100
5 5 5 1 5 5 0 2 0 27 100 100 100 81 28 60 87 5 8 5 8 80 59 100 100 100 100 100 100 73 100 91 86 26 98 91 86 100 99 100 100 100 100
0 0 4 4 0 0 0 0 0 9 62 7 53 15 85 20 5 5 5 5 6 99 98 98 100 100 100 100 100 100 100 100 32 100 100 100 100 100 100 100 100 100 100
0 0 0 0 1 5 100 32 6 65 99 100 92 100 12 4 4 4 5 6 8 82 100 100 100 100 100 87 96 100 94 94 100 100 100 100 100 100 100 89 92 100 100
0 0 0 0 2 18 98 100 100 99 100 100 100 88 6 4 5 5 5 5 6 78 100 60 100 100 100 100 100 86 100 100 100 73 100 100 100 100 95 76 99 100 100
0 0 0 0 0 5 66 100 100 100 100 100 62 6 6 8 7 5 5 5 12 78 91 47 97 100 100 100 96 100 81 100 100 100 100 100 100 100 100 100 95 100 100
0 0 2 0 0 4 99 100 100 100 100 100 52 14 5 5 9 6 47 28 83 100 100 100 100 100 100 100 100 91 100 100 100 100 100 100 100 100 100 100 100 65 97
0 0 0 0 0 4 100 100 100 100 100 100 100 6 6 46 26 12 55 99 100 100 100 100 100 100 100 100 100 100 100 100 100 100 100 100 100 100 100 100 100 100 100
0 0 0 0 0 0 59 95 24 100 100 100 17 91 95 100 99 98 79 100 100 100 100 100 100 100 100 100 100 100 100 100 100 100 100 100 100 100 100 100 100 100 100
0 3 0 0 5 5 5 5 38 74 87 16 26 98 100 100 50 100 100 100 100 100 100 100 100 100 100 100 100 100 100 100 100 100 100 100 100 100 100 100 100 100 100
5 4 0 0 0 5 5 5 75 98 16 8 66 49 100 53 98 92 100 100 100 100 100 100 100 100 100 100 100 100 100 100 100 100 100 100 100 100 100 100 100 100 100
1 0 0 1 5 5 5 0 67 91 96 17 85 96 100 67 100 100 100 100 100 100 100 100 100 100 100 100 100 100 100 100 100 100 100 100 100 100 100 100 100 100 100
0 0 0 4 5 4 5 35 77 91 46 55 90 100 100 100 100 98 100 100 100 100 100 100 100 100 100 100 100 100 100 100 100 100 100 100 100 100 100 100 100 100 100
0 2 4 5 5 2 5 74 70 84 98 35 84 92 100 100 100 99 100 100 100 100 100 100 100 100 100 100 100 100 100 100 100 100 100 100 100 100 100 100 100 100 100
20 10 30 6 5 0 48 70 5 25 100 9 99 100 100 100 100 100 100 100 100 100 100 100 100 100 100 100 100 100 100 100 100 100 100 100 100 100 100 100 100 100 100
52 6 14 5 5 90 96 75 5 94 100 5 93 100 98 100 100 100 100 100 100 100 100 100 100 100 100 100 100 100 100 100 100 100 100 100 100 100 100 100 100 100 100
100 7 5 5 5 5 64 58 50 100 49 5 40 100 100 100 100 100 100 100 100 100 100 100 100 100 100 100 100 100 100 100 100 100 100 100 100 100 100 100 100 100 100
66 5 4 0 4 5 77 60 98 100 7 27 100 100 100 100 100 100 100 100 100 100 100 100 100 100 100 100 100 100 100 100 100 100 100 100 100 100 100 100 100 100 100